| time (UTC) | temp F | wind direction | speed MPH | gust MPH | rain 1hr in | rain 24hr in | rain mn in | humidity % | barometer mb |
| 20260510064211 | 54 | 129 | 2.0 | 6.0 | 0.00 | 0.00 | 0.00 | 81 | 1014.3 |
| 20260510063716 | 53 | 122 | 2.0 | 6.0 | 0.00 | 0.00 | 0.00 | 84 | 1014.4 |
| 20260510063218 | 52 | 100 | 2.0 | 4.0 | 0.00 | 0.00 | 0.00 | 86 | 1014.4 |
| 20260510062714 | 51 | 138 | 2.0 | 4.0 | 0.00 | 0.00 | 0.00 | 87 | 1014.4 |
| 20260510062231 | 51 | 145 | 1.0 | 4.0 | 0.00 | 0.00 | 0.00 | 89 | 1014.4 |
| 20260510061721 | 50 | 181 | 1.0 | 4.0 | 0.00 | 0.00 | 0.00 | 89 | 1014.5 |
| 20260510061219 | 50 | 163 | 1.0 | 4.0 | 0.00 | 0.00 | 0.00 | 90 | 1014.5 |
| 20260510060713 | 49 | 203 | 1.0 | 4.0 | 0.00 | 0.00 | 0.00 | 90 | 1014.6 |
| 20260510060217 | 49 | 210 | 2.0 | 4.0 | 0.00 | 0.00 | 0.00 | 90 | 1014.7 |
| 20260510055715 | 49 | 170 | 1.0 | 4.0 | 0.00 | 0.00 | 0.00 | 91 | 1014.7 |
| 20260510055210 | 48 | 176 | 1.0 | 4.0 | 0.00 | 0.00 | 0.00 | 91 | 1014.7 |
| 20260510054715 | 48 | 202 | 1.0 | 4.0 | 0.00 | 0.00 | 0.00 | 91 | 1014.8 |
| 20260510054211 | 48 | 186 | 2.0 | 4.0 | 0.00 | 0.00 | 0.00 | 91 | 1014.8 |
| 20260510053710 | 47 | 248 | 2.0 | 4.0 | 0.00 | 0.00 | 0.00 | 91 | 1014.8 |
| 20260510053215 | 47 | 233 | 2.0 | 4.0 | 0.00 | 0.00 | 0.00 | 92 | 1014.8 |
| 20260510052715 | 47 | 221 | 3.0 | 4.0 | 0.00 | 0.00 | 0.00 | 92 | 1014.8 |
| 20260510052217 | 47 | 229 | 2.0 | 5.0 | 0.00 | 0.00 | 0.00 | 92 | 1014.9 |
| 20260510051716 | 46 | 229 | 3.0 | 5.0 | 0.00 | 0.00 | 0.00 | 92 | 1014.8 |
| 20260510050713 | 46 | 230 | 2.0 | 5.0 | 0.00 | 0.00 | 0.00 | 92 | 1014.8 |
| 20260510050213 | 46 | 224 | 3.0 | 5.0 | 0.00 | 0.00 | 0.00 | 92 | 1014.8 |
| 20260510045707 | 46 | 236 | 3.0 | 4.0 | 0.00 | 0.00 | 0.00 | 92 | 1014.8 |
| 20260510045219 | 46 | 215 | 3.0 | 5.0 | 0.00 | 0.00 | 0.00 | 92 | 1014.8 |
| 20260510044711 | 45 | 217 | 3.0 | 5.0 | 0.00 | 0.00 | 0.00 | 92 | 1014.9 |
| 20260510044208 | 45 | 229 | 3.0 | 5.0 | 0.00 | 0.00 | 0.00 | 92 | 1015.0 |
| 20260510043711 | 45 | 236 | 3.0 | 5.0 | 0.00 | 0.00 | 0.00 | 91 | 1014.9 |
| 20260510043210 | 45 | 232 | 3.0 | 5.0 | 0.00 | 0.00 | 0.00 | 91 | 1015.0 |
| 20260510042715 | 44 | 252 | 2.0 | 4.0 | 0.00 | 0.00 | 0.00 | 91 | 1015.0 |
| 20260510042209 | 44 | 238 | 3.0 | 4.0 | 0.00 | 0.00 | 0.00 | 91 | 1014.9 |
| 20260510041207 | 44 | 243 | 2.0 | 3.0 | 0.00 | 0.00 | 0.00 | 91 | 1014.9 |
| 20260510040715 | 44 | 234 | 2.0 | 4.0 | 0.00 | 0.00 | 0.00 | 91 | 1014.9 |
| 20260510040215 | 44 | 252 | 3.0 | 4.0 | 0.00 | 0.00 | 0.00 | 90 | 1015.0 |
| 20260510035707 | 44 | 256 | 3.0 | 4.0 | 0.00 | 0.00 | 0.00 | 90 | 1015.0 |
| 20260510035208 | 44 | 252 | 3.0 | 4.0 | 0.00 | 0.00 | 0.00 | 90 | 1015.0 |
| 20260510034718 | 44 | 244 | 2.0 | 7.0 | 0.00 | 0.00 | 0.00 | 90 | 1014.9 |
| 20260510034219 | 44 | 244 | 2.0 | 8.0 | 0.00 | 0.00 | 0.00 | 90 | 1014.9 |
| 20260510033712 | 44 | 244 | 4.0 | 8.0 | 0.00 | 0.00 | 0.00 | 90 | 1014.9 |
| 20260510033215 | 44 | 240 | 4.0 | 6.0 | 0.00 | 0.00 | 0.00 | 90 | 1015.0 |
| 20260510032212 | 44 | 221 | 3.0 | 7.0 | 0.00 | 0.00 | 0.00 | 90 | 1015.0 |
| 20260510031743 | 45 | 238 | 3.0 | 8.0 | 0.00 | 0.00 | 0.00 | 90 | 1015.0 |
| 20260510031214 | 45 | 247 | 4.0 | 8.0 | 0.00 | 0.00 | 0.00 | 90 | 1015.2 |
| 20260510030713 | 45 | 223 | 5.0 | 8.0 | 0.00 | 0.00 | 0.00 | 90 | 1015.2 |
| 20260510030217 | 45 | 230 | 4.0 | 6.0 | 0.00 | 0.00 | 0.00 | 90 | 1015.2 |
| 20260510025713 | 45 | 225 | 4.0 | 7.0 | 0.00 | 0.00 | 0.00 | 90 | 1015.2 |
| 20260510024706 | 45 | 232 | 4.0 | 8.0 | 0.00 | 0.00 | 0.00 | 90 | 1015.1 |
| 20260510024217 | 45 | 222 | 4.0 | 6.0 | 0.00 | 0.00 | 0.00 | 90 | 1015.3 |
| 20260510023712 | 45 | 228 | 3.0 | 5.0 | 0.00 | 0.00 | 0.00 | 90 | 1015.1 |
| 20260510023208 | 45 | 238 | 3.0 | 6.0 | 0.00 | 0.00 | 0.00 | 90 | 1015.1 |
| 20260510022707 | 45 | 235 | 3.0 | 6.0 | 0.00 | 0.00 | 0.00 | 90 | 1015.2 |
| 20260510021718 | 45 | 223 | 3.0 | 5.0 | 0.00 | 0.00 | 0.00 | 89 | 1015.2 |
| 20260510020207 | 45 | 226 | 3.0 | 4.0 | 0.00 | 0.00 | 0.00 | 89 | 1015.3 |
| 20260510015713 | 45 | 226 | 2.0 | 4.0 | 0.00 | 0.00 | 0.00 | 89 | 1015.4 |
| 20260510014711 | 46 | 226 | 3.0 | 8.0 | 0.00 | 0.00 | 0.00 | 89 | 1015.5 |
| 20260510014209 | 46 | 226 | 4.0 | 8.0 | 0.00 | 0.00 | 0.00 | 89 | 1015.5 |
| 20260510013710 | 45 | 223 | 4.0 | 8.0 | 0.00 | 0.00 | 0.00 | 88 | 1015.6 |
| 20260510012717 | 45 | 217 | 3.0 | 5.0 | 0.00 | 0.00 | 0.00 | 88 | 1015.5 |
| 20260510012234 | 45 | 235 | 3.0 | 4.0 | 0.00 | 0.00 | 0.00 | 88 | 1015.5 |
| 20260510011215 | 46 | 244 | 3.0 | 4.0 | 0.00 | 0.00 | 0.00 | 87 | 1015.4 |
| 20260510010714 | 46 | 239 | 3.0 | 3.0 | 0.00 | 0.00 | 0.00 | 87 | 1015.4 |
| 20260510010217 | 46 | 232 | 2.0 | 3.0 | 0.00 | 0.00 | 0.00 | 87 | 1015.4 |
| 20260510005708 | 46 | 232 | 2.0 | 3.0 | 0.00 | 0.00 | 0.00 | 87 | 1015.4 |
| 20260510005217 | 46 | 232 | 1.0 | 3.0 | 0.00 | 0.00 | 0.00 | 86 | 1015.4 |
| 20260510003707 | 46 | 232 | 2.0 | 4.0 | 0.00 | 0.00 | 0.00 | 86 | 1015.5 |
| 20260510003215 | 46 | 238 | 3.0 | 4.0 | 0.00 | 0.00 | 0.00 | 85 | 1015.6 |
| 20260510002706 | 46 | 239 | 2.0 | 4.0 | 0.00 | 0.00 | 0.00 | 85 | 1015.6 |
| 20260510002214 | 46 | 238 | 2.0 | 3.0 | 0.00 | 0.00 | 0.00 | 84 | 1015.6 |
| 20260510001713 | 47 | 292 | 2.0 | 2.0 | 0.00 | 0.00 | 0.00 | 84 | 1015.6 |
| 20260510001211 | 47 | 292 | 1.0 | 3.0 | 0.00 | 0.00 | 0.00 | 84 | 1015.6 |
| 20260510000710 | 47 | 292 | 1.0 | 3.0 | 0.00 | 0.00 | 0.00 | 84 | 1015.7 |
| 20260510000211 | 47 | 292 | 1.0 | 3.0 | 0.00 | 0.00 | 0.00 | 83 | 1015.6 |
| 20260509235708 | 47 | 292 | 1.0 | 2.0 | 0.00 | 0.00 | 0.00 | 83 | 1015.7 |
| 20260509234713 | 48 | 292 | 1.0 | 2.0 | 0.00 | 0.00 | 0.00 | 82 | 1015.7 |
| 20260509234216 | 48 | 292 | 1.0 | 2.0 | 0.00 | 0.00 | 0.00 | 82 | 1015.7 |
| 20260509233713 | 48 | 292 | 1.0 | 2.0 | 0.00 | 0.00 | 0.00 | 82 | 1015.9 |
| 20260509232720 | 49 | 292 | 0.0 | 2.0 | 0.00 | 0.00 | 0.00 | 81 | 1016.1 |
| 20260509232210 | 49 | 292 | 1.0 | 2.0 | 0.00 | 0.00 | 0.00 | 81 | 1016.1 |
| 20260509231219 | 49 | 292 | 1.0 | 4.0 | 0.00 | 0.00 | 0.00 | 81 | 1016.3 |
| 20260509230711 | 50 | 292 | 2.0 | 4.0 | 0.00 | 0.00 | 0.00 | 81 | 1016.4 |
| 20260509230220 | 50 | 296 | 1.0 | 3.0 | 0.00 | 0.00 | 0.00 | 81 | 1016.3 |
| 20260509225207 | 50 | 313 | 0.0 | 0.0 | 0.00 | 0.00 | 0.00 | 81 | 1016.4 |
| 20260509223712 | 51 | 323 | 1.0 | 3.0 | 0.00 | 0.00 | 0.00 | 81 | 1016.6 |
| 20260509223217 | 51 | 322 | 2.0 | 4.0 | 0.00 | 0.00 | 0.00 | 81 | 1016.6 |
| 20260509222731 | 51 | 304 | 2.0 | 4.0 | 0.00 | 0.00 | 0.00 | 81 | 1016.6 |
| 20260509222212 | 51 | 323 | 2.0 | 4.0 | 0.00 | 0.00 | 0.00 | 81 | 1016.6 |
| 20260509221705 | 51 | 321 | 2.0 | 4.0 | 0.00 | 0.00 | 0.00 | 81 | 1016.6 |
| 20260509221209 | 51 | 338 | 2.0 | 4.0 | 0.00 | 0.00 | 0.00 | 82 | 1016.7 |
| 20260509220715 | 51 | 327 | 2.0 | 4.0 | 0.00 | 0.00 | 0.00 | 82 | 1016.8 |
| 20260509220217 | 51 | 339 | 2.0 | 4.0 | 0.00 | 0.00 | 0.00 | 82 | 1016.8 |
| 20260509215719 | 51 | 337 | 2.0 | 4.0 | 0.00 | 0.00 | 0.00 | 82 | 1016.7 |
| 20260509215205 | 51 | 342 | 2.0 | 5.0 | 0.00 | 0.00 | 0.00 | 82 | 1016.8 |
| 20260509214212 | 52 | 326 | 3.0 | 4.0 | 0.00 | 0.00 | 0.00 | 83 | 1016.8 |
| 20260509213708 | 52 | 336 | 3.0 | 4.0 | 0.00 | 0.00 | 0.00 | 82 | 1016.8 |
| 20260509213213 | 52 | 344 | 2.0 | 4.0 | 0.00 | 0.00 | 0.00 | 82 | 1016.8 |
| 20260509212210 | 52 | 355 | 3.0 | 5.0 | 0.00 | 0.00 | 0.00 | 84 | 1016.9 |
| 20260509211709 | 52 | 23 | 2.0 | 5.0 | 0.00 | 0.00 | 0.00 | 84 | 1016.9 |
| 20260509211217 | 52 | 40 | 2.0 | 5.0 | 0.00 | 0.00 | 0.00 | 86 | 1016.8 |
| 20260509210713 | 53 | 42 | 2.0 | 4.0 | 0.00 | 0.00 | 0.00 | 87 | 1016.8 |
| 20260509205714 | 53 | 65 | 1.0 | 3.0 | 0.00 | 0.00 | 0.00 | 87 | 1016.7 |
| 20260509205208 | 54 | 25 | 0.0 | 3.0 | 0.00 | 0.00 | 0.00 | 87 | 1016.7 |
| 20260509204712 | 54 | 48 | 0.0 | 3.0 | 0.00 | 0.00 | 0.00 | 88 | 1016.7 |
| 20260509204215 | 54 | 10 | 1.0 | 3.0 | 0.00 | 0.00 | 0.00 | 88 | 1016.6 |
| 20260509203720 | 54 | 10 | 2.0 | 4.0 | 0.00 | 0.00 | 0.00 | 88 | 1016.4 |
| 20260509202712 | 54 | 84 | 2.0 | 6.0 | 0.00 | 0.00 | 0.00 | 88 | 1016.4 |
| 20260509202207 | 54 | 75 | 3.0 | 9.0 | 0.00 | 0.00 | 0.00 | 87 | 1016.3 |
| 20260509201711 | 54 | 66 | 3.0 | 9.0 | 0.00 | 0.00 | 0.00 | 87 | 1016.3 |
| 20260509201218 | 55 | 63 | 3.0 | 9.0 | 0.00 | 0.00 | 0.00 | 86 | 1016.2 |
| 20260509200712 | 55 | 333 | 3.0 | 5.0 | 0.00 | 0.00 | 0.00 | 86 | 1016.2 |
| 20260509200219 | 55 | 261 | 3.0 | 5.0 | 0.00 | 0.00 | 0.00 | 86 | 1016.1 |
| 20260509195717 | 55 | 246 | 3.0 | 5.0 | 0.00 | 0.00 | 0.00 | 86 | 1016.1 |
| 20260509195210 | 56 | 236 | 4.0 | 5.0 | 0.00 | 0.00 | 0.00 | 86 | 1016.1 |
| 20260509194711 | 56 | 250 | 4.0 | 5.0 | 0.00 | 0.00 | 0.00 | 86 | 1016.1 |
| 20260509194212 | 56 | 231 | 3.0 | 6.0 | 0.00 | 0.00 | 0.00 | 86 | 1016.1 |
| 20260509193718 | 56 | 220 | 3.0 | 6.0 | 0.00 | 0.00 | 0.00 | 86 | 1016.1 |
| 20260509192707 | 56 | 213 | 3.0 | 6.0 | 0.00 | 0.00 | 0.00 | 85 | 1016.1 |
| 20260509191716 | 56 | 237 | 4.0 | 6.0 | 0.00 | 0.00 | 0.00 | 85 | 1016.1 |
| 20260509191206 | 56 | 232 | 4.0 | 7.0 | 0.00 | 0.00 | 0.00 | 85 | 1016.0 |
| 20260509190715 | 57 | 232 | 4.0 | 7.0 | 0.00 | 0.00 | 0.00 | 85 | 1016.0 |
| 20260509190216 | 57 | 202 | 4.0 | 6.0 | 0.00 | 0.00 | 0.00 | 84 | 1016.0 |
| 20260509185714 | 57 | 220 | 3.0 | 5.0 | 0.00 | 0.00 | 0.00 | 84 | 1015.9 |
| 20260509185220 | 57 | 214 | 2.0 | 6.0 | 0.00 | 0.00 | 0.00 | 84 | 1015.8 |
| 20260509184717 | 57 | 219 | 3.0 | 6.0 | 0.00 | 0.00 | 0.00 | 84 | 1015.8 |
| 20260509184219 | 57 | 203 | 4.0 | 6.0 | 0.00 | 0.00 | 0.00 | 84 | 1015.8 |
| 20260509183718 | 58 | 217 | 4.0 | 6.0 | 0.00 | 0.00 | 0.00 | 84 | 1015.7 |
| 20260509183213 | 58 | 204 | 3.0 | 5.0 | 0.00 | 0.00 | 0.00 | 83 | 1015.6 |
| 20260509182704 | 58 | 216 | 2.0 | 6.0 | 0.00 | 0.00 | 0.00 | 83 | 1015.5 |
| 20260509182211 | 58 | 219 | 3.0 | 6.0 | 0.00 | 0.00 | 0.00 | 83 | 1015.5 |
| 20260509181732 | 58 | 217 | 4.0 | 6.0 | 0.00 | 0.00 | 0.00 | 82 | 1015.5 |
| 20260509180713 | 58 | 232 | 5.0 | 7.0 | 0.00 | 0.00 | 0.00 | 82 | 1015.6 |
| 20260509180207 | 59 | 231 | 5.0 | 7.0 | 0.00 | 0.00 | 0.00 | 81 | 1015.6 |
| 20260509175715 | 59 | 217 | 4.0 | 7.0 | 0.00 | 0.00 | 0.00 | 81 | 1015.6 |
| 20260509175211 | 59 | 234 | 4.0 | 7.0 | 0.00 | 0.00 | 0.00 | 81 | 1015.6 |
| 20260509174705 | 59 | 220 | 4.0 | 7.0 | 0.00 | 0.00 | 0.00 | 80 | 1015.6 |
| 20260509174217 | 60 | 209 | 5.0 | 7.0 | 0.00 | 0.00 | 0.00 | 80 | 1015.7 |
| 20260509173708 | 60 | 232 | 5.0 | 9.0 | 0.00 | 0.00 | 0.00 | 79 | 1015.7 |
| 20260509172719 | 60 | 209 | 5.0 | 12.0 | 0.00 | 0.00 | 0.00 | 78 | 1015.5 |
| 20260509172218 | 60 | 196 | 6.0 | 13.0 | 0.00 | 0.00 | 0.00 | 77 | 1015.5 |
| 20260509171733 | 60 | 215 | 7.0 | 13.0 | 0.00 | 0.00 | 0.00 | 76 | 1015.5 |
| 20260509171219 | 61 | 232 | 7.0 | 13.0 | 0.00 | 0.00 | 0.00 | 75 | 1015.5 |
| 20260509170732 | 61 | 209 | 7.0 | 11.0 | 0.00 | 0.00 | 0.00 | 75 | 1015.5 |
| 20260509165715 | 61 | 195 | 6.0 | 12.0 | 0.00 | 0.00 | 0.00 | 77 | 1015.6 |
| 20260509165209 | 61 | 230 | 6.0 | 12.0 | 0.00 | 0.00 | 0.00 | 77 | 1015.6 |
| 20260509164710 | 61 | 229 | 6.0 | 12.0 | 0.00 | 0.00 | 0.00 | 76 | 1015.7 |
| 20260509164206 | 61 | 226 | 6.0 | 9.0 | 0.00 | 0.00 | 0.00 | 75 | 1015.6 |
| 20260509163719 | 61 | 219 | 5.0 | 8.0 | 0.00 | 0.00 | 0.00 | 76 | 1015.5 |
| 20260509163207 | 61 | 241 | 3.0 | 7.0 | 0.00 | 0.00 | 0.00 | 77 | 1015.5 |
| 20260509162715 | 61 | 190 | 4.0 | 8.0 | 0.00 | 0.00 | 0.00 | 77 | 1015.5 |
| 20260509162207 | 61 | 198 | 4.0 | 10.0 | 0.00 | 0.00 | 0.00 | 78 | 1015.4 |
| 20260509161710 | 61 | 202 | 5.0 | 10.0 | 0.00 | 0.00 | 0.00 | 78 | 1015.4 |
| 20260509161213 | 61 | 213 | 6.0 | 10.0 | 0.00 | 0.00 | 0.00 | 78 | 1015.5 |
| 20260509160725 | 61 | 244 | 6.0 | 10.0 | 0.00 | 0.00 | 0.00 | 78 | 1015.6 |
| 20260509155721 | 61 | 222 | 5.0 | 10.0 | 0.00 | 0.00 | 0.00 | 79 | 1015.6 |
| 20260509155218 | 61 | 238 | 5.0 | 11.0 | 0.00 | 0.00 | 0.00 | 78 | 1015.6 |
| 20260509154709 | 61 | 241 | 5.0 | 12.0 | 0.00 | 0.00 | 0.00 | 79 | 1015.6 |
| 20260509154211 | 61 | 218 | 6.0 | 13.0 | 0.00 | 0.00 | 0.00 | 79 | 1015.6 |
| 20260509152713 | 61 | 223 | 5.0 | 12.0 | 0.00 | 0.00 | 0.00 | 80 | 1015.8 |
| 20260509151709 | 61 | 216 | 6.0 | 13.0 | 0.00 | 0.00 | 0.00 | 79 | 1015.7 |
| 20260509151208 | 61 | 227 | 7.0 | 14.0 | 0.00 | 0.00 | 0.00 | 79 | 1015.9 |
| 20260509150715 | 61 | 227 | 8.0 | 16.0 | 0.00 | 0.00 | 0.00 | 79 | 1015.9 |
| 20260509150211 | 61 | 225 | 10.0 | 16.0 | 0.00 | 0.00 | 0.00 | 78 | 1015.9 |
| 20260509145713 | 61 | 223 | 10.0 | 16.0 | 0.00 | 0.00 | 0.00 | 76 | 1015.9 |
| 20260509145206 | 61 | 237 | 10.0 | 15.0 | 0.00 | 0.00 | 0.00 | 76 | 1015.9 |
| 20260509144721 | 61 | 236 | 10.0 | 15.0 | 0.00 | 0.00 | 0.00 | 75 | 1015.9 |
| 20260509144210 | 61 | 241 | 10.0 | 15.0 | 0.00 | 0.00 | 0.00 | 74 | 1015.9 |
| 20260509143221 | 62 | 236 | 8.0 | 14.0 | 0.00 | 0.00 | 0.00 | 72 | 1015.9 |
| 20260509142709 | 63 | 242 | 8.0 | 15.0 | 0.00 | 0.00 | 0.00 | 71 | 1015.9 |
| 20260509142216 | 63 | 244 | 8.0 | 15.0 | 0.00 | 0.00 | 0.00 | 70 | 1016.0 |
| 20260509141710 | 64 | 221 | 8.0 | 13.0 | 0.00 | 0.00 | 0.00 | 69 | 1016.0 |
| 20260509141208 | 64 | 223 | 6.0 | 13.0 | 0.00 | 0.00 | 0.00 | 67 | 1016.0 |
| 20260509135713 | 65 | 240 | 3.0 | 6.0 | 0.00 | 0.00 | 0.00 | 61 | 1016.1 |
| 20260509135213 | 65 | 238 | 2.0 | 3.0 | 0.00 | 0.00 | 0.00 | 59 | 1016.1 |
| 20260509134717 | 65 | 242 | 1.0 | 3.0 | 0.00 | 0.00 | 0.00 | 58 | 1016.1 |
| 20260509134214 | 65 | 323 | 1.0 | 3.0 | 0.00 | 0.00 | 0.00 | 57 | 1016.1 |
| 20260509133708 | 65 | 323 | 2.0 | 6.0 | 0.00 | 0.00 | 0.00 | 57 | 1016.1 |
| 20260509132718 | 65 | 63 | 2.0 | 6.0 | 0.00 | 0.00 | 0.00 | 57 | 1016.1 |
| 20260509132219 | 65 | 84 | 2.0 | 4.0 | 0.00 | 0.00 | 0.00 | 57 | 1016.2 |
| 20260509131709 | 65 | 64 | 2.0 | 4.0 | 0.00 | 0.00 | 0.00 | 56 | 1016.2 |
| 20260509131209 | 65 | 36 | 2.0 | 7.0 | 0.00 | 0.00 | 0.00 | 56 | 1016.2 |
| 20260509130706 | 65 | 63 | 3.0 | 7.0 | 0.00 | 0.00 | 0.00 | 56 | 1016.2 |
| 20260509130205 | 65 | 80 | 3.0 | 7.0 | 0.00 | 0.00 | 0.00 | 56 | 1016.2 |
| 20260509125716 | 65 | 78 | 3.0 | 8.0 | 0.00 | 0.00 | 0.00 | 57 | 1016.2 |
| 20260509125210 | 65 | 30 | 4.0 | 8.0 | 0.00 | 0.00 | 0.00 | 57 | 1016.1 |
| 20260509124706 | 65 | 53 | 4.0 | 11.0 | 0.00 | 0.00 | 0.00 | 57 | 1016.0 |
| 20260509124221 | 65 | 39 | 5.0 | 12.0 | 0.00 | 0.00 | 0.00 | 57 | 1015.9 |
| 20260509123209 | 66 | 80 | 6.0 | 12.0 | 0.00 | 0.00 | 0.00 | 56 | 1015.9 |
| 20260509122719 | 66 | 65 | 5.0 | 10.0 | 0.00 | 0.00 | 0.00 | 56 | 1015.9 |
| 20260509122211 | 66 | 51 | 5.0 | 10.0 | 0.00 | 0.00 | 0.00 | 56 | 1016.0 |
| 20260509121705 | 66 | 59 | 4.0 | 10.0 | 0.00 | 0.00 | 0.00 | 56 | 1016.0 |
| 20260509121210 | 66 | 24 | 3.0 | 8.0 | 0.00 | 0.00 | 0.00 | 55 | 1016.1 |
| 20260509120717 | 66 | 70 | 3.0 | 9.0 | 0.00 | 0.00 | 0.00 | 55 | 1016.1 |
| 20260509120219 | 67 | 0 | 3.0 | 10.0 | 0.00 | 0.00 | 0.00 | 53 | 1016.1 |
| 20260509115714 | 67 | 35 | 4.0 | 11.0 | 0.00 | 0.00 | 0.00 | 53 | 1016.2 |
| 20260509115215 | 68 | 56 | 6.0 | 11.0 | 0.00 | 0.00 | 0.00 | 53 | 1016.1 |
| 20260509114714 | 68 | 69 | 5.0 | 11.0 | 0.00 | 0.00 | 0.00 | 52 | 1016.0 |
| 20260509114210 | 69 | 26 | 3.0 | 12.0 | 0.00 | 0.00 | 0.00 | 53 | 1016.0 |
| 20260509113714 | 69 | 77 | 5.0 | 12.0 | 0.00 | 0.00 | 0.00 | 55 | 1016.1 |
| 20260509113214 | 68 | 88 | 6.0 | 12.0 | 0.00 | 0.00 | 0.00 | 55 | 1016.1 |
| 20260509112711 | 68 | 80 | 5.0 | 11.0 | 0.00 | 0.00 | 0.00 | 56 | 1016.0 |
| 20260509112207 | 68 | 36 | 4.0 | 11.0 | 0.00 | 0.00 | 0.00 | 54 | 1016.1 |
| 20260509111713 | 68 | 10 | 3.0 | 10.0 | 0.00 | 0.00 | 0.00 | 56 | 1016.1 |
| 20260509110711 | 67 | 322 | 4.0 | 12.0 | 0.00 | 0.00 | 0.00 | 54 | 1016.2 |
| 20260509110212 | 67 | 54 | 6.0 | 12.0 | 0.00 | 0.00 | 0.00 | 56 | 1016.3 |
| 20260509105707 | 67 | 57 | 5.0 | 14.0 | 0.00 | 0.00 | 0.00 | 55 | 1016.3 |
| 20260509104718 | 66 | 65 | 5.0 | 14.0 | 0.00 | 0.00 | 0.00 | 57 | 1016.4 |
| 20260509104207 | 66 | 30 | 6.0 | 12.0 | 0.00 | 0.00 | 0.00 | 57 | 1016.4 |
| 20260509103209 | 66 | 62 | 4.0 | 10.0 | 0.00 | 0.00 | 0.00 | 57 | 1016.6 |
| 20260509102710 | 66 | 104 | 5.0 | 10.0 | 0.00 | 0.00 | 0.00 | 58 | 1016.6 |
| 20260509102217 | 66 | 72 | 5.0 | 11.0 | 0.00 | 0.00 | 0.00 | 58 | 1016.7 |
| 20260509101707 | 65 | 137 | 6.0 | 14.0 | 0.00 | 0.00 | 0.00 | 60 | 1016.7 |
| 20260509100712 | 65 | 50 | 6.0 | 14.0 | 0.00 | 0.00 | 0.00 | 59 | 1016.7 |
| 20260509100210 | 65 | 71 | 4.0 | 10.0 | 0.00 | 0.00 | 0.00 | 59 | 1016.8 |
| 20260509095206 | 65 | 86 | 3.0 | 9.0 | 0.00 | 0.00 | 0.00 | 61 | 1016.9 |
| 20260509094707 | 64 | 75 | 5.0 | 9.0 | 0.00 | 0.00 | 0.00 | 61 | 1016.9 |
| 20260509093715 | 64 | 93 | 4.0 | 12.0 | 0.00 | 0.00 | 0.00 | 61 | 1017.0 |
| 20260509092708 | 64 | 85 | 7.0 | 12.0 | 0.00 | 0.00 | 0.00 | 61 | 1017.0 |
| 20260509092211 | 63 | 74 | 6.0 | 11.0 | 0.00 | 0.00 | 0.00 | 62 | 1017.0 |
| 20260509091705 | 63 | 30 | 6.0 | 12.0 | 0.00 | 0.00 | 0.00 | 62 | 1017.0 |
| 20260509091213 | 63 | 111 | 7.0 | 12.0 | 0.00 | 0.00 | 0.00 | 61 | 1017.0 |
| 20260509090713 | 63 | 14 | 7.0 | 12.0 | 0.00 | 0.00 | 0.00 | 59 | 1017.0 |
| 20260509090211 | 63 | 74 | 6.0 | 14.0 | 0.00 | 0.00 | 0.00 | 61 | 1017.0 |
| 20260509085710 | 63 | 84 | 6.0 | 14.0 | 0.00 | 0.00 | 0.00 | 62 | 1017.0 |
| 20260509085209 | 62 | 18 | 6.0 | 14.0 | 0.00 | 0.00 | 0.00 | 63 | 1017.0 |
| 20260509084706 | 62 | 90 | 5.0 | 12.0 | 0.00 | 0.00 | 0.00 | 63 | 1017.1 |
| 20260509083213 | 62 | 61 | 5.0 | 9.0 | 0.00 | 0.00 | 0.00 | 66 | 1017.4 |
| 20260509082708 | 62 | 18 | 5.0 | 11.0 | 0.00 | 0.00 | 0.00 | 66 | 1017.4 |
| 20260509082215 | 62 | 56 | 5.0 | 11.0 | 0.00 | 0.00 | 0.00 | 65 | 1017.4 |
| 20260509081720 | 62 | 14 | 6.0 | 10.0 | 0.00 | 0.00 | 0.00 | 65 | 1017.4 |
| 20260509081219 | 62 | 347 | 5.0 | 10.0 | 0.00 | 0.00 | 0.00 | 67 | 1017.3 |
| 20260509080718 | 62 | 30 | 5.0 | 12.0 | 0.00 | 0.00 | 0.00 | 69 | 1017.3 |
| 20260509075717 | 61 | 67 | 5.0 | 12.0 | 0.00 | 0.00 | 0.00 | 70 | 1017.3 |
| 20260509074715 | 61 | 44 | 5.0 | 9.0 | 0.00 | 0.00 | 0.00 | 70 | 1017.3 |
| 20260509074208 | 61 | 15 | 4.0 | 9.0 | 0.00 | 0.00 | 0.00 | 71 | 1017.3 |
| 20260509073716 | 61 | 36 | 3.0 | 9.0 | 0.00 | 0.00 | 0.00 | 70 | 1017.3 |
| 20260509073210 | 60 | 14 | 4.0 | 9.0 | 0.00 | 0.00 | 0.00 | 72 | 1017.3 |
| 20260509072705 | 60 | 19 | 4.0 | 9.0 | 0.00 | 0.00 | 0.00 | 72 | 1017.3 |
| 20260509072215 | 60 | 36 | 4.0 | 9.0 | 0.00 | 0.00 | 0.00 | 74 | 1017.3 |
| 20260509071710 | 60 | 348 | 4.0 | 6.0 | 0.00 | 0.00 | 0.00 | 75 | 1017.3 |
| 20260509071215 | 59 | 76 | 3.0 | 8.0 | 0.00 | 0.00 | 0.00 | 75 | 1017.3 |
| 20260509070715 | 59 | 0 | 4.0 | 8.0 | 0.00 | 0.00 | 0.00 | 75 | 1017.2 |
| 20260509070211 | 58 | 41 | 4.0 | 6.0 | 0.00 | 0.00 | 0.00 | 76 | 1017.2 |
| 20260509065720 | 58 | 78 | 3.0 | 6.0 | 0.00 | 0.00 | 0.00 | 77 | 1017.1 |